1507111201.1,60697,13.38,73944.0,5.85,8.05,8.05,0,*7B
1507111202.33,60698,13.31,73944.3,5.91,7.83,7.87,0,*75
1507111203.51,60699,13.38,73946.5,5.95,7.97,7.97,0,*74
1507111204.7,60700,13.31,73940.3,5.95,8.09,8.01,0,*7D
1507111205.97,60701,13.31,73942.5,5.97,7.77,7.77,0,*76
1507111207.17,60702,13.31,73940.3,5.99,7.59,7.47,0,*74
1507111208.38,60703,13.31,73940.8,5.99,7.51,7.47,0,*7D
1507111209.59,60704,13.31,73942.5,5.99,7.61,7.59,0,*76
1507111210.83,60705,13.31,73942.0,6.01,7.61,7.51,0,*7D
1507111212.04,60706,13.31,73942.3,6.03,7.15,7.09,0,*72
1507111213.27,60707,13.31,73940.0,6.01,6.75,6.73,0,*7A
1507111214.48,60708,13.31,73942.8,6.03,7.27,7.09,0,*7D
1507111215.69,60709,13.31,73940.0,6.03,7.29,7.19,0,*73
1507111216.95,60710,13.31,73940.8,6.05,6.87,6.87,0,*7E
1507111218.21,60711,13.31,73942.0,6.05,6.61,6.51,0,*7C
1507111219.45,60712,13.31,73944.3,6.03,6.17,6.13,0,*7E
1507111220.68,60713,13.31,73942.3,6.03,5.77,5.55,0,*7B
1507111221.87,60714,13.31,73944.0,6.03,5.33,5.19,0,*74
1507111223.1,60715,13.31,73940.5,6.01,5.01,4.89,0,*7E
1507111224.31,60716,13.31,73942.3,6.01,5.07,4.89,0,*7B
1507111225.52,60717,13.31,73940.3,5.97,5.41,5.23,0,*75
1507111226.76,60718,13.31,73946.0,5.97,5.73,5.63,0,*7F
1507111227.96,60719,13.31,73944.0,5.97,6.11,6.07,0,*78
1507111229.2,60720,13.31,73942.0,5.99,6.53,6.43,0,*7A
1507111230.43,60721,13.31,73948.3,5.99,6.69,6.65,0,*76
1507111231.62,60722,13.31,73950.0,5.99,6.25,6.11,0,*7E
1507111232.81,60723,13.31,73944.8,5.99,6.03,5.95,0,*74
1507111234.05,60724,13.31,73948.8,5.97,6.07,5.93,0,*7F
1507111235.24,60725,13.31,73950.0,5.99,6.21,6.03,0,*7E
1507111236.43,60726,13.31,73946.5,5.99,6.33,6.21,0,*7E
1507111237.67,60727,13.31,73948.3,6.01,5.77,5.67,0,*7F
1507111238.87,60728,13.31,73948.3,5.99,5.29,5.27,0,*7D
1507111240.08,60729,13.31,73948.0,5.99,5.41,5.27,0,*72
1507111241.28,60730,13.31,73946.0,5.97,5.29,5.15,0,*7B
1507111242.49,60731,13.31,73944.5,5.97,5.59,5.37,0,*7D
1507111243.7,60732,13.31,73946.5,5.97,5.63,5.41,0,*76
1507111244.9,60733,13.31,73944.8,5.97,5.49,5.37,0,*7E
1507111246.11,60734,13.31,73948.0,5.95,5.41,5.27,0,*72
1507111247.32,60735,13.31,73944.3,5.95,5.27,5.23,0,*77
1507111248.53,60736,13.31,73950.8,5.95,5.27,5.15,0,*71
1507111249.72,60737,13.31,73948.5,5.95,5.29,5.23,0,*7B
1507111250.9,60738,13.31,73944.0,5.95,5.49,5.29,0,*78
1507111252.12,60739,13.31,73946.5,5.93,5.33,5.19,0,*71
1507111253.36,60740,13.31,73946.0,5.93,5.89,5.71,0,*70
1507111254.62,60741,13.31,73948.0,5.93,6.65,6.57,0,*77
1507111255.84,60742,13.31,73946.8,5.97,7.11,7.01,0,*70
1507111257.07,60743,13.31,73950.8,5.95,6.69,6.61,0,*7A
1507111258.33,60744,13.31,73944.8,5.97,6.65,6.53,0,*72
1507111259.54,60745,13.31,73950.0,5.97,6.33,6.29,0,*7D
1507111260.77,60746,13.31,73948.5,5.97,6.75,6.65,0,*74
1507111261.98,60747,13.31,73946.8,5.99,6.83,6.65,0,*72
1507111263.21,60748,13.31,73948.3,5.99,7.27,7.23,0,*71
1507111264.42,60749,13.31,73948.3,6.03,7.51,7.47,0,*73
1507111265.61,60750,13.31,73944.8,6.03,7.41,7.29,0,*72
1507111266.79,60751,13.31,73948.8,6.03,7.09,7.05,0,*71
1507111268.03,60752,13.31,73946.3,6.05,6.97,6.91,0,*7E
1507111269.26,60753,13.31,73948.0,6.05,7.11,7.09,0,*70
1507111270.47,60754,13.31,73944.5,6.07,7.11,7.01,0,*7D
1507111271.68,60755,13.31,73942.0,6.09,7.59,7.55,0,*7F
1507111272.91,60756,13.31,73944.3,6.09,8.01,7.91,0,*76
1507111274.12,60757,13.31,73946.0,6.13,8.15,8.15,0,*7A
1507111275.38,60758,13.31,73942.3,6.17,8.29,8.37,0,*7E
1507111276.61,60759,13.31,73942.0,6.17,8.29,8.19,0,*73
1507111277.84,60760,13.31,73944.3,6.21,8.41,8.33,0,*7A
1507111279.07,60761,13.31,73940.0,6.21,8.51,8.47,0,*79
1507111280.28,60762,13.31,73942.5,6.23,8.61,8.61,0,*7F
1507111281.49,60763,13.31,73942.0,6.25,8.45,8.41,0,*7C
1507111282.72,60764,13.31,73938.5,6.27,8.29,8.23,0,*77
1507111283.93,60765,13.31,73938.0,6.27,8.19,8.09,0,*7D
1507111285.17,60766,13.31,73938.3,6.29,7.91,7.77,0,*79
1507111286.42,60767,13.31,73936.8,6.35,8.29,8.29,0,*7D
1507111287.67,60768,13.31,73934.8,6.31,8.33,8.33,0,*76
1507111288.91,60769,13.31,73934.0,6.35,8.09,7.95,0,*79
1507111290.14,60770,13.31,73932.3,6.35,7.37,7.27,0,*7A
1507111291.31,60771,13.31,73934.5,6.37,6.93,6.83,0,*79
1507111292.55,60772,13.31,73932.3,6.37,6.47,6.35,0,*7E
1507111293.8,60773,13.31,73932.3,6.35,6.57,6.43,0,*7D
1507111295.06,60774,13.31,73934.8,6.35,6.13,5.93,0,*74
1507111296.3,60775,13.31,73934.3,6.31,5.67,5.51,0,*7F
1507111297.5,60776,13.31,73934.5,6.31,5.29,5.15,0,*76
1507111298.76,60777,13.31,73936.5,6.27,5.27,5.01,0,*7B
1507111299.97,60778,13.31,73934.8,6.23,5.45,5.23,0,*74
1507111301.18,60779,13.31,73936.8,6.23,5.29,5.11,0,*7E
1507111302.42,60780,13.31,73938.0,6.23,5.01,4.89,0,*72
1507111303.6,60781,13.31,73936.5,6.19,5.63,5.49,0,*73
1507111304.8,60782,13.31,73938.8,6.19,5.51,5.29,0,*77
1507111305.99,60783,13.31,73938.5,6.19,5.37,5.19,0,*75
1507111307.17,60784,13.31,73938.3,6.19,5.29,5.15,0,*71
1507111308.35,60785,13.31,73936.0,6.15,5.11,4.89,0,*73
1507111309.56,60786,13.31,73936.8,6.15,4.85,4.67,0,*7C
1507111310.77,60787,13.31,73934.5,6.13,5.11,4.85,0,*7B
1507111311.98,60788,13.31,73934.5,6.09,5.67,5.37,0,*76
1507111313.19,60789,13.31,73938.8,6.09,5.63,5.41,0,*72
1507111314.39,60790,13.31,73934.0,6.09,5.45,5.29,0,*70
1507111315.61,60791,13.31,73936.3,6.07,4.85,4.63,0,*7D
1507111316.85,60792,13.31,73936.3,6.05,5.11,4.93,0,*7F
1507111318.08,60793,13.31,73936.3,6.05,6.07,5.85,0,*7C
1507111319.26,60794,13.31,73938.8,6.07,6.11,6.07,0,*77
1507111320.51,60795,13.31,73936.3,6.05,6.03,5.81,0,*7A
1507111321.69,60796,13.31,73938.5,6.07,5.63,5.45,0,*76
1507111322.93,60797,13.31,73942.0,6.05,5.23,5.01,0,*71
1507111324.14,60798,13.31,73938.0,6.05,5.49,5.33,0,*73
1507111325.38,60799,13.31,73940.8,6.05,5.85,5.59,0,*7E
1507111326.62,60800,13.31,73940.0,6.05,6.43,6.33,0,*77
1507111327.89,60801,13.31,73942.0,6.05,6.51,6.43,0,*72
1507111329.07,60802,13.31,73936.5,6.07,6.79,6.75,0,*7C
1507111330.32,60803,13.31,73938.5,6.07,6.57,6.47,0,*70
1507111331.5,60804,13.31,73936.5,6.07,6.07,6.07,0,*76
1507111332.72,60805,13.31,73942.0,6.07,5.67,5.51,0,*72
1507111333.93,60806,13.31,73940.0,6.05,5.41,5.33,0,*73
1507111335.19,60807,13.31,73942.0,6.05,5.93,5.81,0,*74
1507111336.4,60808,13.31,73938.8,6.07,6.25,6.13,0,*7F
1507111337.66,60809,13.31,73942.8,6.05,6.17,6.17,0,*79
1507111338.88,60810,13.31,73940.0,6.07,6.13,6.11,0,*71
1507111340.08,60811,13.31,73940.0,6.07,6.75,6.69,0,*7F
1507111341.33,60812,13.31,73940.8,6.09,6.47,6.25,0,*7B
1507111342.52,60813,13.31,73942.8,6.07,6.21,6.07,0,*74
1507111343.75,60814,13.31,73944.0,6.09,6.91,6.75,0,*73
1507111344.95,60815,13.31,73946.5,6.07,6.33,6.25,0,*71
1507111346.14,60816,13.31,73944.8,6.07,6.33,6.25,0,*72
1507111347.35,60817,13.31,73944.0,6.13,7.09,6.97,0,*77
1507111348.61,60818,13.31,73946.0,6.09,7.23,7.11,0,*74
1507111349.85,60819,13.31,73944.0,6.13,7.47,7.37,0,*78
1507111351.05,60820,13.31,73948.3,6.13,7.37,7.29,0,*7A
1507111352.29,60821,13.31,73944.3,6.13,6.35,6.25,0,*75
1507111353.5,60822,13.31,73948.5,6.15,6.25,6.17,0,*70
1507111354.73,60823,13.31,73952.8,6.13,6.39,6.29,0,*77
1507111355.96,60824,13.31,73950.8,6.13,6.13,6.07,0,*74
1507111357.19,60825,13.31,73950.5,6.13,5.55,5.45,0,*71
1507111358.4,60826,13.31,73952.0,6.09,6.11,5.95,0,*77
1507111359.67,60827,13.31,73954.0,6.09,6.35,6.13,0,*7D
1507111360.89,60828,13.31,73948.0,6.09,6.25,6.21,0,*72
1507111362.15,60829,13.31,73948.0,6.09,5.89,5.77,0,*76
1507111363.35,60830,13.31,73954.3,6.09,5.41,5.37,0,*7E
1507111364.57,60831,13.31,73952.5,6.07,5.07,4.93,0,*7C
1507111365.8,60832,13.25,73950.0,6.05,5.37,5.27,0,*70
1507111367.01,60833,13.31,73950.5,6.03,5.67,5.55,0,*77
1507111368.23,60834,13.31,73952.8,6.01,6.03,5.99,0,*73
1507111369.47,60835,13.31,73956.3,6.03,6.17,6.13,0,*74
1507111370.7,60836,13.31,73952.3,6.03,6.61,6.57,0,*76
1507111371.93,60837,13.31,73958.8,6.03,6.73,6.73,0,*72
1507111373.14,60838,13.31,73956.5,6.03,6.07,5.93,0,*73
1507111374.37,60839,13.31,73956.5,6.01,5.77,5.59,0,*72
1507111375.58,60840,13.31,73958.5,6.01,6.07,6.03,0,*74
1507111376.79,60841,13.31,73956.8,6.03,6.17,6.07,0,*72
1507111378.06,60842,13.31,73960.8,6.01,6.51,6.47,0,*75
1507111379.29,60843,13.31,73960.0,6.01,6.39,6.25,0,*7E
1507111380.54,60844,13.25,73958.5,6.01,6.13,6.03,0,*75
1507111381.78,60845,13.31,73956.3,6.01,5.89,5.71,0,*72
1507111383.01,60846,13.31,73958.5,6.01,6.17,6.07,0,*77
1507111384.24,60847,13.31,73956.3,5.97,5.15,4.93,0,*74
1507111385.45,60848,13.31,73962.3,5.97,5.41,5.37,0,*75
1507111386.65,60849,13.31,73962.5,5.97,6.11,6.07,0,*72
1507111387.89,60850,13.25,73956.0,5.97,6.39,6.21,0,*74
1507111389.15,60851,13.31,73960.5,5.97,6.65,6.69,0,*70
1507111390.33,60852,13.31,73958.3,5.99,7.05,6.93,0,*7F
1507111391.51,60853,13.31,73960.5,5.99,6.93,6.83,0,*71
1507111392.69,60854,13.31,73958.3,5.99,6.83,6.79,0,*72
1507111393.91,60855,13.31,73962.3,6.03,7.29,7.27,0,*78
1507111395.11,60856,13.31,73962.3,6.01,7.41,7.37,0,*76
1507111396.38,60857,13.31,73964.3,6.01,7.73,7.73,0,*76
1507111397.61,60858,13.31,73962.5,6.05,7.87,7.79,0,*7C
1507111398.82,60859,13.31,73962.0,6.05,7.59,7.59,0,*7C
1507111400.05,60860,13.31,73962.3,6.07,7.83,7.83,0,*74
1507111401.26,60861,13.31,73962.0,6.13,8.09,8.09,0,*70
1507111402.49,60862,13.31,73962.0,6.13,7.51,7.47,0,*74
1507111403.69,60863,13.31,73960.5,6.13,7.05,7.05,0,*72
1507111404.89,60864,13.25,73960.5,6.15,7.37,7.19,0,*7F
1507111406.07,60865,13.31,73966.8,6.15,7.37,7.29,0,*7D
1507111407.28,60866,13.31,73964.0,6.17,7.41,7.33,0,*76
1507111408.49,60867,13.25,73960.5,6.15,6.97,6.87,0,*71
1507111409.72,60868,13.31,73960.3,6.17,6.93,6.91,0,*7F
1507111410.9,60869,13.25,73960.3,6.15,6.79,6.79,0,*7E
1507111412.13,60870,13.25,73962.3,6.17,7.11,7.01,0,*75
1507111413.35,60871,13.31,73964.3,6.17,7.19,7.01,0,*7C
1507111414.61,60872,13.25,73962.5,6.17,6.87,6.73,0,*7D
1507111415.84,60873,13.31,73964.5,6.15,6.61,6.47,0,*71
1507111417.02,60874,13.31,73964.8,6.15,6.93,6.83,0,*73
1507111418.26,60875,13.25,73960.0,6.15,6.47,6.35,0,*76
1507111419.5,60876,13.31,73964.8,6.17,6.39,6.33,0,*78
1507111420.71,60877,13.25,73962.5,6.15,6.25,6.17,0,*70
1507111421.92,60878,13.31,73964.8,6.15,5.81,5.71,0,*71
1507111423.13,60879,13.31,73966.0,6.13,5.23,5.07,0,*7F
1507111424.35,60880,13.25,73960.8,6.09,4.37,4.33,0,*70
1507111425.61,60881,13.25,73960.8,6.05,3.53,3.37,0,*7B
1507111426.82,60882,13.25,73962.0,5.99,2.61,2.47,0,*78
1507111428.09,60883,13.31,73964.5,5.97,3.07,2.89,0,*74
1507111429.35,60884,13.31,73966.5,5.93,3.67,3.49,0,*7C
1507111430.56,60885,13.31,73964.8,5.91,3.85,3.67,0,*7F
1507111431.8,60886,13.25,73964.3,5.89,4.59,4.41,0,*70
1507111433.0,60887,13.31,73966.0,5.89,5.29,5.15,0,*77
1507111434.19,60888,13.31,73966.3,5.85,5.49,5.41,0,*73
1507111435.39,60889,13.25,73964.0,5.85,5.71,5.59,0,*70
1507111436.64,60890,13.25,73964.5,5.85,5.89,5.81,0,*7A
1507111437.86,60891,13.25,73960.8,5.85,6.17,6.07,0,*72
1507111439.04,60892,13.31,73966.8,5.83,6.29,6.21,0,*7E
1507111440.26,60893,13.31,73966.8,5.83,5.85,5.73,0,*7E
1507111441.46,60894,13.25,73960.8,5.83,5.27,5.15,0,*71
1507111442.64,60895,13.25,73960.8,5.83,5.37,5.19,0,*7D
1507111443.86,60896,13.25,73962.8,5.83,5.89,5.73,0,*77
1507111445.06,60897,13.25,73960.8,5.81,5.67,5.49,0,*7D
1507111446.29,60898,13.25,73962.0,5.81,6.35,6.25,0,*7F
1507111447.54,60899,13.31,73966.8,5.81,6.65,6.61,0,*7B
1507111448.73,60900,13.25,73964.5,5.85,7.01,6.97,0,*74
1507111449.97,60901,13.31,73966.5,5.85,6.65,6.53,0,*7E
1507111451.17,60902,13.31,73964.3,5.85,5.99,5.95,0,*74
1507111452.36,60903,13.25,73964.0,5.85,5.71,5.63,0,*7A
1507111453.61,60904,13.25,73964.5,5.85,5.89,5.85,0,*72
1507111454.81,60905,13.31,73964.5,5.83,5.95,5.89,0,*74
1507111456.02,60906,13.25,73960.8,5.83,5.95,5.89,0,*77
1507111457.24,60907,13.31,73964.0,5.85,6.91,6.97,0,*7B
1507111458.49,60908,13.25,73960.8,5.85,7.69,7.69,0,*72
1507111459.73,60909,13.25,73962.3,5.91,8.13,8.13,0,*76
1507111460.97,60910,13.25,73962.5,5.91,7.83,7.95,0,*79
1507111462.21,60911,13.25,73960.5,5.95,7.77,7.77,0,*7B
1507111463.45,60912,13.25,73960.8,5.95,7.77,7.77,0,*78
1507111464.72,60913,13.25,73962.3,5.97,7.77,7.77,0,*7B
1507111465.93,60914,13.25,73960.3,5.99,7.61,7.51,0,*71
1507111467.11,60915,13.25,73960.8,5.99,7.37,7.37,0,*73
1507111468.32,60916,13.31,73962.0,5.99,7.15,7.05,0,*71
1507111469.51,60917,13.25,73960.0,6.03,7.09,6.97,0,*77
1507111470.74,60918,13.31,73962.3,6.03,6.87,6.87,0,*7E
1507111471.93,60919,13.25,73960.5,6.03,6.93,6.83,0,*7E
1507111473.14,60920,13.25,73958.8,6.03,6.87,6.75,0,*78
1507111474.34,60921,13.25,73960.8,6.03,7.15,7.05,0,*75
1507111475.54,60922,13.25,73960.8,6.05,7.33,7.33,0,*71
1507111476.73,60923,13.25,73960.0,6.03,7.51,7.41,0,*77
1507111477.96,60924,13.25,73962.0,6.03,7.47,7.47,0,*71
1507111479.17,60925,13.25,73960.8,6.01,7.51,7.51,0,*72
1507111480.38,60926,13.25,73960.8,6.05,7.45,7.51,0,*70
1507111481.59,60927,13.25,73962.5,6.07,7.47,7.55,0,*75
1507111482.8,60928,13.25,73962.3,6.07,6.91,6.79,0,*7F
1507111484.01,60929,13.25,73956.5,6.05,6.79,6.75,0,*76
1507111485.23,60930,13.25,73962.8,6.05,6.75,6.73,0,*74
1507111486.47,60931,13.25,73958.8,6.05,6.87,6.75,0,*7E
1507111487.67,60932,13.25,73960.8,6.05,6.79,6.75,0,*7C
1507111488.91,60933,13.25,73962.0,6.03,6.87,6.87,0,*77
1507111490.11,60934,13.25,73962.0,6.03,6.83,6.73,0,*7F
1507111491.37,60935,13.25,73962.8,6.05,6.65,6.53,0,*72
1507111492.59,60936,13.25,73960.8,6.03,6.51,6.25,0,*71
1507111493.81,60937,13.25,73960.0,6.03,6.35,6.25,0,*72
1507111495.04,60938,13.25,73962.5,6.01,6.47,6.29,0,*76
1507111496.28,60939,13.25,73960.5,6.01,6.87,6.93,0,*7A
1507111497.5,60940,13.25,73962.0,6.03,7.27,7.29,0,*7D
1507111498.7,60941,13.25,73956.8,6.01,6.83,6.83,0,*70
1507111499.94,60942,13.25,73960.3,6.01,6.35,6.25,0,*72
1507111501.21,60943,13.25,73958.5,6.01,6.47,6.47,0,*72
1507111502.44,60944,13.25,73954.5,5.99,6.69,6.69,0,*77
1507111503.64,60945,13.25,73958.5,5.99,6.79,6.73,0,*7C
1507111504.87,60946,13.25,73962.3,5.99,7.11,7.11,0,*75
1507111506.11,60947,13.25,73958.0,5.99,7.23,7.27,0,*70
1507111507.32,60948,13.25,73956.5,5.99,7.05,7.11,0,*7E
1507111508.53,60949,13.25,73956.5,5.99,7.37,7.27,0,*7B
1507111509.8,60950,13.25,73962.3,6.01,7.61,7.77,0,*77
1507111510.98,60951,13.25,73958.5,6.03,7.41,7.41,0,*73
1507111512.18,60952,13.25,73962.8,6.01,7.37,7.37,0,*72
1507111513.42,60953,13.25,73958.3,6.01,7.47,7.37,0,*74
1507111514.67,60954,13.25,73956.3,6.01,7.47,7.47,0,*74
1507111515.91,60955,13.25,73958.3,6.03,7.15,7.15,0,*77
1507111517.17,60956,13.25,73958.3,6.01,6.87,6.87,0,*76
1507111518.35,60957,13.25,73960.0,6.03,6.75,6.75,0,*75
1507111519.56,60958,13.25,73954.5,6.01,7.05,6.93,0,*76
1507111520.78,60959,13.25,73958.0,6.01,7.29,7.29,0,*79
1507111521.99,60960,13.25,73962.5,6.01,7.55,7.55,0,*73
1507111523.2,60961,13.25,73956.8,6.03,7.95,7.97,0,*72
1507111524.38,60962,13.25,73962.3,6.03,7.97,8.05,0,*77
1507111525.62,60963,13.25,73956.5,6.05,8.13,8.19,0,*7E
1507111526.83,60964,13.25,73958.3,6.07,8.01,8.13,0,*72
1507111528.03,60965,13.25,73956.8,6.07,7.55,7.55,0,*70
1507111529.26,60966,13.25,73958.3,6.09,7.47,7.59,0,*72
1507111530.47,60967,13.25,73960.8,6.09,7.33,7.33,0,*7C
1507111531.65,60968,13.25,73962.3,6.07,7.37,7.37,0,*7D
1507111532.84,60969,13.25,73962.8,6.07,7.05,7.01,0,*78
1507111534.1,60970,13.25,73958.5,6.09,6.91,6.91,0,*7A
1507111535.31,60971,13.25,73956.3,6.09,7.05,7.05,0,*7B
1507111536.56,60972,13.25,73956.8,6.09,7.47,7.47,0,*78
1507111537.83,60973,13.25,73958.8,6.09,7.73,7.73,0,*79
1507111539.1,60974,13.25,73960.5,6.09,7.73,7.77,0,*7A
1507111540.36,60975,13.25,73960.8,6.13,7.73,7.73,0,*74
1507111541.62,60976,13.25,73960.0,6.13,7.73,7.73,0,*77
1507111542.85,60977,13.25,73956.3,6.13,7.87,7.97,0,*77
1507111544.06,60978,13.25,73958.3,6.13,8.19,8.27,0,*74
1507111545.29,60979,13.25,73956.3,6.15,7.95,7.87,0,*7D
1507111546.56,60980,13.25,73958.3,6.17,7.61,7.61,0,*7A
1507111547.82,60981,13.25,73956.8,6.17,7.19,7.19,0,*7B
1507111549.07,60982,13.25,73958.3,6.17,7.19,7.19,0,*78
1507111550.33,60983,13.25,73960.8,6.17,6.91,6.87,0,*7E
1507111551.52,60984,13.25,73958.8,6.19,6.93,6.93,0,*70
1507111552.77,60985,13.25,73952.5,6.17,7.19,7.19,0,*7F
1507111553.95,60986,13.25,73954.3,6.15,7.09,7.09,0,*7E
1507111555.13,60987,13.25,73958.5,6.15,6.93,6.93,0,*7F
1507111556.31,60988,13.25,73956.3,6.15,6.93,6.83,0,*71
1507111557.5,60989,13.25,73956.8,6.15,6.93,6.93,0,*71
1507111558.73,60990,13.25,73954.5,6.15,7.27,7.19,0,*74
1507111559.94,60991,13.25,73958.0,6.15,7.47,7.41,0,*7E
1507111561.15,60992,13.25,73956.3,6.17,7.51,7.51,0,*79
1507111562.4,60993,13.25,73958.0,6.17,7.19,7.19,0,*78
1507111563.61,60994,13.25,73960.3,6.17,7.09,7.01,0,*77
1507111564.84,60995,13.25,73956.0,6.19,7.27,7.27,0,*70
1507111566.05,60996,13.25,73958.0,6.19,7.65,7.59,0,*7C
1507111567.29,60997,13.25,73958.0,6.19,7.69,7.73,0,*79
1507111568.5,60998,13.25,73956.0,6.19,8.13,8.15,0,*7B
1507111569.74,60999,13.25,73958.0,6.19,7.73,7.83,0,*73
1507111570.97,61000,13.25,73956.0,6.21,7.69,7.69,0,*7F
1507111572.2,61001,13.25,73956.8,6.21,7.65,7.69,0,*72
1507111573.39,61002,13.25,73958.8,6.19,7.37,7.37,0,*76
1507111574.56,61003,13.25,73956.8,6.21,7.05,7.05,0,*7C
1507111575.74,61004,13.25,73958.0,6.21,7.45,7.33,0,*7A
1507111576.94,61005,13.25,73958.5,6.21,7.47,7.45,0,*78
1507111578.17,61006,13.25,73960.8,6.23,7.51,7.47,0,*7C
1507111579.36,61007,13.25,73956.8,6.21,7.55,7.55,0,*78
1507111580.57,61008,13.25,73956.3,6.25,7.61,7.51,0,*70
1507111581.74,61009,13.25,73958.0,6.21,7.01,7.01,0,*76
1507111582.97,61010,13.25,73956.0,6.21,6.69,6.65,0,*72
1507111584.16,61011,13.25,73962.0,6.21,6.79,6.69,0,*7E
1507111585.4,61012,13.25,73956.0,6.19,6.91,6.91,0,*77
1507111586.58,61013,13.25,73956.5,6.21,6.93,6.93,0,*7D
1507111587.81,61014,13.25,73960.8,6.19,6.69,6.57,0,*7C
1507111589.05,61015,13.25,73956.8,6.19,6.43,6.35,0,*71
1507111590.28,61016,13.25,73962.3,6.15,5.93,5.77,0,*75
1507111591.49,61017,13.25,73960.8,6.15,5.99,5.89,0,*7F
1507111592.75,61018,13.25,73958.3,6.13,5.89,5.81,0,*7F
1507111593.96,61019,13.25,73960.0,6.09,6.07,5.99,0,*79
1507111595.22,61020,13.25,73956.3,6.05,6.53,6.43,0,*7A
1507111596.42,61021,13.25,73960.0,6.05,6.79,6.75,0,*76
1507111597.6,61022,13.25,73962.3,6.07,7.33,7.33,0,*7B
1507111598.79,61023,13.25,73956.8,6.07,7.45,7.45,0,*7A
1507111599.97,61024,13.25,73962.3,6.07,7.37,7.45,0,*78
1507111601.19,61025,13.25,73960.3,6.07,7.55,7.61,0,*7B
1507111602.4,61026,13.25,73956.5,6.09,7.45,7.45,0,*71
1507111603.61,61027,13.25,73958.8,6.09,7.45,7.45,0,*70
1507111604.82,61028,13.25,73958.3,6.09,7.37,7.37,0,*7F
1507111606.03,61029,13.25,73962.0,6.09,6.93,6.93,0,*7E
1507111607.27,61030,13.25,73958.8,6.07,7.23,7.23,0,*78
1507111608.45,61031,13.25,73960.3,6.07,6.83,6.79,0,*7C
1507111609.67,61032,13.25,73960.0,6.07,6.93,6.87,0,*7F
1507111610.84,61033,13.25,73962.5,6.07,7.01,7.01,0,*7B
1507111612.05,61034,13.25,73962.5,6.05,7.09,7.09,0,*7E
1507111613.26,61035,13.25,73960.5,6.07,6.91,6.79,0,*7B
1507111614.51,61036,13.25,73960.0,6.05,6.61,6.61,0,*7C
1507111615.73,61037,13.25,73960.0,6.05,6.33,6.33,0,*7D
1507111616.99,61038,13.25,73962.0,6.05,6.65,6.61,0,*76
1507111618.24,61039,13.25,73958.8,6.01,6.69,6.61,0,*7F
1507111619.5,61040,13.25,73960.3,6.01,6.73,6.73,0,*79
1507111620.74,61041,13.25,73960.0,6.01,6.69,6.69,0,*78
1507111622.0,61042,13.25,73960.0,6.01,6.73,6.73,0,*7B
1507111623.23,61043,13.25,73962.3,5.99,6.73,6.73,0,*78
1507111624.44,61044,13.25,73956.5,6.01,7.01,6.97,0,*73
1507111625.67,61045,13.25,73960.3,5.97,7.11,7.09,0,*79
1507111626.84,61046,13.25,73962.5,5.99,7.01,7.05,0,*79
1507111628.06,61047,13.25,73958.0,5.99,6.83,6.91,0,*7F
1507111629.26,61048,13.25,73956.8,5.97,6.11,6.07,0,*7A
1507111630.47,61049,13.25,73962.3,5.97,6.07,5.95,0,*74
1507111631.66,61050,13.25,73958.8,5.95,5.99,5.95,0,*7A
1507111632.87,61051,13.25,73962.0,5.93,6.07,6.07,0,*71
1507111634.05,61052,13.25,73956.5,5.91,6.07,6.07,0,*70
1507111635.28,61053,13.25,73962.3,5.91,6.39,6.39,0,*71
1507111636.55,61054,13.25,73956.5,5.89,6.43,6.47,0,*7B
1507111637.79,61055,13.25,73962.5,5.91,5.93,5.93,0,*77
1507111639.03,61056,13.25,73956.8,5.89,5.77,5.77,0,*7D
1507111640.29,61057,13.25,73958.3,5.89,5.93,5.93,0,*7C
1507111641.47,61058,13.25,73956.0,5.83,5.95,5.95,0,*79
1507111642.7,61059,13.25,73954.0,5.83,5.89,5.89,0,*78
1507111643.92,61060,13.25,73958.0,5.79,5.93,5.93,0,*77
1507111645.11,61061,13.25,73956.3,5.79,6.03,6.03,0,*76
1507111646.34,61062,13.25,73956.5,5.79,5.93,5.93,0,*75
1507111647.54,61063,13.25,73956.3,5.79,6.03,5.93,0,*7E
1507111648.73,61064,13.25,73958.0,5.79,6.03,6.03,0,*73
1507111649.9,61065,13.25,73954.8,5.75,6.11,6.11,0,*7E
1507111651.08,61066,13.25,73956.3,5.75,5.71,5.71,0,*7D
1507111652.25,61067,13.25,73954.0,5.75,5.71,5.71,0,*7C
1507111653.44,61068,13.25,73958.0,5.75,5.29,5.27,0,*7D
1507111654.63,61069,13.25,73958.5,5.71,5.51,5.49,0,*7F
1507111655.8,61070,13.25,73956.0,5.71,5.71,5.71,0,*7E
1507111656.98,61071,13.25,73960.3,5.71,5.23,5.11,0,*7E
1507111658.18,61072,13.25,73956.0,5.69,5.23,5.11,0,*74
1507111659.34,61073,13.25,73954.5,5.67,5.45,5.41,0,*7E
1507111660.57,61074,13.25,73956.3,5.67,4.93,4.93,0,*7D
1507111661.82,61075,13.25,73956.8,5.61,4.01,4.01,0,*7A
1507111663.07,61076,13.25,73956.8,5.57,3.41,3.37,0,*7D
1507111664.27,61077,13.25,73956.5,5.53,3.41,3.25,0,*7B
1507111665.52,61078,13.25,73958.0,5.51,4.05,4.01,0,*70
1507111666.7,61079,13.25,73958.5,5.45,3.93,3.93,0,*70
1507111667.88,61080,13.25,73954.5,5.45,4.45,4.33,0,*77
1507111669.13,61081,13.25,73952.5,5.43,4.63,4.59,0,*78
1507111670.33,61082,13.19,73952.8,5.41,4.81,4.67,0,*78
1507111671.56,61083,13.25,73958.0,5.41,4.59,4.59,0,*71
1507111672.79,61084,13.25,73954.0,5.37,4.67,4.63,0,*73
1507111673.97,61085,13.25,73956.5,5.37,4.57,4.57,0,*76
1507111675.2,61086,13.25,73954.8,5.37,4.79,4.67,0,*7A
1507111676.43,61087,13.25,73956.3,5.35,4.97,4.85,0,*75
1507111677.66,61088,13.25,73960.3,5.33,4.97,4.79,0,*7F
1507111678.9,61089,13.25,73954.8,5.33,5.01,5.01,0,*7E
1507111680.1,61090,13.25,73958.5,5.33,4.97,4.85,0,*75
1507111681.28,61091,13.25,73958.3,5.33,4.85,4.85,0,*77
1507111682.51,61092,13.25,73954.8,5.31,4.81,4.71,0,*79
1507111683.74,61093,13.25,73958.0,5.29,4.93,4.93,0,*7E
1507111684.91,61094,13.25,73956.5,5.29,5.45,5.33,0,*78
1507111686.13,61095,13.25,73952.8,5.29,5.55,5.55,0,*78
1507111687.33,61096,13.25,73956.3,5.29,5.67,5.73,0,*7E
1507111688.53,61097,13.25,73956.3,5.29,5.67,5.73,0,*7F
1507111689.73,61098,13.25,73952.5,5.29,5.67,5.73,0,*70
1507111690.91,61099,13.19,73952.8,5.25,5.95,5.95,0,*78
1507111692.1,61100,13.25,73956.5,5.29,6.03,6.03,0,*75
1507111693.32,61101,13.25,73956.8,5.29,5.73,5.73,0,*74
1507111694.52,61102,13.19,73954.0,5.29,5.73,5.63,0,*76
1507111695.73,61103,13.25,73958.3,5.29,5.77,5.77,0,*76
1507111696.92,61104,13.25,73956.5,5.25,5.95,5.95,0,*7D
1507111698.13,61105,13.19,73954.5,5.31,6.03,6.03,0,*79
1507111699.31,61106,13.25,73958.0,5.29,6.25,6.25,0,*73
1507111700.49,61107,13.25,73956.5,5.29,6.11,6.11,0,*72
1507111701.7,61108,13.25,73954.5,5.31,5.95,5.95,0,*74
1507111702.91,61109,13.19,73956.5,5.29,5.77,5.77,0,*7C
1507111704.13,61110,13.25,73958.3,5.29,5.73,5.73,0,*74
1507111705.31,61111,13.25,73958.0,5.29,5.67,5.63,0,*71
1507111706.49,61112,13.25,73958.3,5.29,5.63,5.63,0,*76
1507111707.67,61113,13.19,73956.5,5.29,5.67,5.67,0,*77
1507111708.87,61114,13.25,73956.3,5.29,5.73,5.67,0,*75
1507111710.07,61115,13.19,73958.8,5.29,5.55,5.45,0,*70
1507111711.24,61116,13.25,73962.0,5.25,5.41,5.37,0,*7F
1507111712.42,61117,13.19,73958.0,5.25,5.15,5.11,0,*7B
1507111713.66,61118,13.19,73956.5,5.23,5.01,5.01,0,*76
1507111714.86,61119,13.19,73956.8,5.23,5.33,5.27,0,*72
1507111716.04,61120,13.25,73958.8,5.23,5.11,5.19,0,*75
1507111717.26,61121,13.19,73960.0,5.23,5.27,5.27,0,*7C
1507111718.46,61122,13.19,73958.0,5.23,5.19,5.27,0,*72
1507111719.65,61123,13.25,73962.5,5.23,5.19,5.11,0,*76
1507111720.83,61124,13.19,73958.3,5.19,5.23,5.19,0,*79
1507111722.03,61125,13.25,73960.0,5.21,5.37,5.33,0,*7E
1507111723.22,61126,13.19,73962.5,5.19,5.23,5.19,0,*7B
1507111724.43,61127,13.19,73960.3,5.21,5.19,5.11,0,*70
1507111725.61,61128,13.19,73960.3,5.19,5.23,5.19,0,*75
1507111726.8,61129,13.19,73958.8,5.19,5.23,5.23,0,*7D
1507111728.0,61130,13.19,73960.5,5.19,5.15,5.05,0,*74
1507111729.26,61131,13.19,73960.0,5.17,5.05,4.93,0,*74
1507111730.47,61132,13.25,73962.8,5.17,5.19,5.15,0,*75
1507111731.68,61133,13.19,73962.3,5.17,5.23,5.23,0,*78